• In Italy
  • List of Countries
  • For 7 days
  • Water Temperature
  • Satellite Maps
  • Weather Map
  • Weather Widgets
  • user-avatar
    Login

    Hourly Weather Ashdod

    Today, 14 November, Wednesday

    Time Temperature Precipitation Wind Pressure Humidity
    00:00 +22°C° 0 mm 1 mps 757 mmHg 70%
    01:00 +21°C° 0 mm 1 mps 757 mmHg 72%
    02:00 +20°C° 0 mm 2 mps 757 mmHg 71%
    03:00 +20°C° 0.5 mm 2 mps 757 mmHg 73%
    04:00 +20°C° 0.5 mm 2 mps 757 mmHg 76%
    05:00 +19°C° 0.5 mm 2 mps 756 mmHg 78%
    06:00 +20°C° 0.6 mm 2 mps 756 mmHg 75%
    07:00 +20°C° 0.6 mm 2 mps 756 mmHg 72%
    08:00 +21°C° 0 mm 2 mps 756 mmHg 69%
    09:00 +23°C° 0.4 mm 2 mps 756 mmHg 64%
    10:00 +22°C° 0.4 mm 3 mps 756 mmHg 60%
    11:00 +24°C° 0.4 mm 3 mps 756 mmHg 55%
    12:00 +24°C° 0.3 mm 3 mps 756 mmHg 55%
    13:00 +24°C° 0.3 mm 3 mps 756 mmHg 54%
    14:00 +23°C° 0.3 mm 4 mps 756 mmHg 53%
    15:00 +24°C° 0.3 mm 3 mps 756 mmHg 55%
    16:00 +22°C° 0.3 mm 3 mps 756 mmHg 58%
    17:00 +22°C° 0.3 mm 3 mps 756 mmHg 60%
    18:00 +23°C° 0.2 mm 2 mps 756 mmHg 62%
    19:00 +21°C° 0.2 mm 2 mps 756 mmHg 64%
    20:00 +21°C° 0.2 mm 2 mps 757 mmHg 67%
    21:00 +21°C° 0.2 mm 2 mps 757 mmHg 68%
    22:00 +20°C° 0.2 mm 2 mps 757 mmHg 70%
    23:00 +20°C° 0.2 mm 2 mps 757 mmHg 72%

    Tomorrow, 15 November, Thursday

    Time Temperature Precipitation Wind Pressure Humidity
    00:00 +20°C° 0.1 mm 2 mps 757 mmHg 73%
    01:00 +19°C° 0.1 mm 2 mps 757 mmHg 74%
    02:00 +19°C° 0.1 mm 2 mps 757 mmHg 75%
    03:00 +19°C° 0.2 mm 2 mps 757 mmHg 76%
    04:00 +19°C° 0.2 mm 2 mps 757 mmHg 77%
    05:00 +18°C° 0.2 mm 2 mps 757 mmHg 78%
    06:00 +19°C° 0.1 mm 2 mps 757 mmHg 76%
    07:00 +19°C° 0.1 mm 2 mps 758 mmHg 74%
    08:00 +20°C° 0.1 mm 3 mps 758 mmHg 72%
    09:00 +20°C° 0 mm 2 mps 758 mmHg 67%
    10:00 +21°C° 0 mm 2 mps 758 mmHg 62%
    11:00 +23°C° 0 mm 1 mps 758 mmHg 57%
    12:00 +23°C° 0 mm 1 mps 758 mmHg 55%
    13:00 +24°C° 0 mm 2 mps 758 mmHg 52%
    14:00 +24°C° 0 mm 2 mps 757 mmHg 49%
    15:00 +24°C° 0 mm 2 mps 758 mmHg 50%
    16:00 +22°C° 0 mm 3 mps 758 mmHg 50%
    17:00 +22°C° 0 mm 3 mps 758 mmHg 51%
    18:00 +23°C° 0 mm 2 mps 758 mmHg 52%
    19:00 +21°C° 0 mm 2 mps 759 mmHg 53%
    20:00 +21°C° 0 mm 2 mps 759 mmHg 55%
    21:00 +21°C° 0 mm 2 mps 759 mmHg 56%
    22:00 +20°C° 0 mm 3 mps 759 mmHg 57%
    23:00 +20°C° 0 mm 3 mps 759 mmHg 59%

    Day after tomorrow, 16 November, Friday

    Time Temperature Precipitation Wind Pressure Humidity
    00:00 +20°C° 0.1 mm 4 mps 759 mmHg 61%
    01:00 +20°C° 0.1 mm 4 mps 759 mmHg 62%
    02:00 +19°C° 0.1 mm 5 mps 759 mmHg 64%
    03:00 +19°C° 0.4 mm 5 mps 759 mmHg 65%
    04:00 +19°C° 0.4 mm 6 mps 759 mmHg 66%
    05:00 +19°C° 0.4 mm 6 mps 759 mmHg 68%
    06:00 +18°C° 0.7 mm 7 mps 760 mmHg 69%
    07:00 +18°C° 0.7 mm 7 mps 761 mmHg 70%
    08:00 +20°C° 0.7 mm 8 mps 761 mmHg 72%
    09:00 +20°C° 0.6 mm 8 mps 761 mmHg 71%
    10:00 +20°C° 0.6 mm 8 mps 762 mmHg 70%
    11:00 +21°C° 0.6 mm 8 mps 762 mmHg 69%
    12:00 +21°C° 0.4 mm 7 mps 762 mmHg 66%
    13:00 +21°C° 0.4 mm 7 mps 762 mmHg 64%
    14:00 +22°C° 0.4 mm 6 mps 762 mmHg 62%
    15:00 +21°C° 0.2 mm 6 mps 762 mmHg 63%
    16:00 +21°C° 0.2 mm 5 mps 762 mmHg 64%
    17:00 +21°C° 0.2 mm 5 mps 762 mmHg 65%
    18:00 +20°C° 0.2 mm 4 mps 763 mmHg 67%
    19:00 +20°C° 0.2 mm 4 mps 763 mmHg 69%
    20:00 +20°C° 0.2 mm 4 mps 764 mmHg 71%
    21:00 +20°C° 0.1 mm 3 mps 764 mmHg 71%
    22:00 +19°C° 0.1 mm 3 mps 764 mmHg 71%
    23:00 +19°C° 0.1 mm 2 mps 764 mmHg 71%

    17 November, Saturday

    Time Temperature Precipitation Wind Pressure Humidity
    00:00 +19°C° 0 mm 2 mps 764 mmHg 72%
    01:00 +20°C° 0 mm 1 mps 764 mmHg 73%
    02:00 +19°C° 0 mm 1 mps 764 mmHg 73%
    03:00 +19°C° 0 mm 1 mps 764 mmHg 74%
    04:00 +19°C° 0 mm 1 mps 764 mmHg 76%
    05:00 +18°C° 0 mm 2 mps 764 mmHg 77%
    06:00 +18°C° 0 mm 2 mps 765 mmHg 73%
    07:00 +19°C° 0 mm 2 mps 765 mmHg 69%
    08:00 +19°C° 0 mm 2 mps 766 mmHg 66%
    09:00 +20°C° 0 mm 2 mps 765 mmHg 60%
    10:00 +21°C° 0 mm 2 mps 765 mmHg 54%
    11:00 +23°C° 0 mm 1 mps 765 mmHg 48%
    12:00 +23°C° 0 mm 1 mps 765 mmHg 46%
    13:00 +24°C° 0 mm 1 mps 764 mmHg 44%
    14:00 +24°C° 0 mm 2 mps 764 mmHg 42%
    15:00 +24°C° 0 mm 2 mps 764 mmHg 44%
    16:00 +22°C° 0 mm 3 mps 764 mmHg 46%
    17:00 +22°C° 0 mm 3 mps 764 mmHg 49%
    18:00 +21°C° 0 mm 3 mps 764 mmHg 50%
    19:00 +21°C° 0 mm 4 mps 764 mmHg 51%
    20:00 +21°C° 0 mm 4 mps 765 mmHg 52%
    21:00 +20°C° 0 mm 3 mps 764 mmHg 52%
    22:00 +20°C° 0 mm 3 mps 764 mmHg 53%
    23:00 +20°C° 0 mm 3 mps 764 mmHg 53%

    18 November, Sunday

    Time Temperature Precipitation Wind Pressure Humidity
    00:00 +20°C° 0 mm 3 mps 764 mmHg 53%
    01:00 +19°C° 0 mm 3 mps 764 mmHg 52%
    02:00 +19°C° 0 mm 3 mps 763 mmHg 52%
    03:00 +19°C° 0 mm 3 mps 763 mmHg 52%
    04:00 +19°C° 0 mm 3 mps 763 mmHg 53%
    05:00 +19°C° 0 mm 3 mps 763 mmHg 53%
    06:00 +19°C° 0 mm 3 mps 763 mmHg 51%
    07:00 +20°C° 0 mm 2 mps 763 mmHg 50%
    08:00 +21°C° 0 mm 2 mps 763 mmHg 48%
    09:00 +23°C° 0 mm 2 mps 763 mmHg 44%
    10:00 +24°C° 0 mm 2 mps 763 mmHg 40%
    11:00 +26°C° 0 mm 2 mps 763 mmHg 36%
    12:00 +26°C° 0 mm 3 mps 762 mmHg 35%
    13:00 +26°C° 0 mm 3 mps 762 mmHg 33%
    14:00 +27°C° 0 mm 3 mps 761 mmHg 32%
    15:00 +26°C° 0 mm 3 mps 761 mmHg 35%
    16:00 +25°C° 0 mm 3 mps 761 mmHg 37%
    17:00 +25°C° 0 mm 4 mps 761 mmHg 40%
    18:00 +23°C° 0 mm 4 mps 761 mmHg 42%
    19:00 +23°C° 0 mm 4 mps 761 mmHg 43%
    20:00 +22°C° 0 mm 4 mps 761 mmHg 45%
    21:00 +22°C° 0 mm 3 mps 761 mmHg 45%
    22:00 +22°C° 0 mm 3 mps 761 mmHg 45%
    23:00 +21°C° 0 mm 3 mps 760 mmHg 45%

    19 November, Monday

    Time Temperature Precipitation Wind Pressure Humidity
    00:00 +21°C° 0 mm 2 mps 760 mmHg 45%
    01:00 +20°C° 0 mm 2 mps 760 mmHg 45%
    02:00 +20°C° 0 mm 2 mps 759 mmHg 45%
    03:00 +20°C° 0 mm 2 mps 759 mmHg 45%
    04:00 +20°C° 0 mm 1 mps 759 mmHg 45%
    05:00 +20°C° 0 mm 1 mps 759 mmHg 44%
    06:00 +21°C° 0 mm 1 mps 759 mmHg 42%
    07:00 +22°C° 0 mm 1 mps 760 mmHg 39%
    08:00 +23°C° 0 mm 1 mps 760 mmHg 36%
    09:00 +24°C° 0 mm 2 mps 760 mmHg 34%
    10:00 +25°C° 0 mm 2 mps 760 mmHg 32%
    11:00 +26°C° 0 mm 2 mps 760 mmHg 30%
    12:00 +26°C° 0 mm 2 mps 759 mmHg 30%
    13:00 +26°C° 0 mm 2 mps 759 mmHg 31%
    14:00 +26°C° 0 mm 2 mps 758 mmHg 31%
    15:00 +26°C° 0 mm 2 mps 759 mmHg 34%
    16:00 +25°C° 0 mm 2 mps 759 mmHg 38%
    17:00 +24°C° 0 mm 2 mps 759 mmHg 41%
    18:00 +23°C° 0 mm 2 mps 759 mmHg 44%
    19:00 +23°C° 0 mm 1 mps 759 mmHg 47%
    20:00 +22°C° 0 mm 1 mps 760 mmHg 50%
    21:00 +22°C° 0 mm 1 mps 760 mmHg 51%
    22:00 +19°C° 0 mm 0 mps 760 mmHg 52%
    23:00 +19°C° 0 mm 0 mps 760 mmHg 53%
    Show more